www.pogodaiklimat.ru

АРХИВ ПОГОДЫ в Филадельфии

Время (UTC), дата Ветер
(напр.,м/с)
 
Видим.   Явления Облачность Т
(С)
Тd
(С)
f
(%)
Тe
(С)
Тes
(С)
Комфортность

P
(гПа)

Po
(гПа)
Тmin
(С)
Tmax
(С)
R
(мм)
SD
(см)
02:54 21.05 СЗ  16 км    2/0 2250 м
[средняя] 
+24.4  +10.0  40  +25  +25  комфорт  1009.6  1009.5         
03:54 21.05 СЗ  9
{11} 
16 км    ясно  +23.3  +10.0  43  +25  +25  комфорт  1009.9  1009.8         
04:54 21.05 С  16 км    2/0 2250 м
[средняя] 
+21.1  +11.1  53  +23  +23  комфорт  1010.6  1010.1  +21.1  +29.4     
05:54 21.05 СЗ  8
{14} 
16 км    2/0 2250 м
[средняя] 
+20.0  +7.8  45  +20  +20    1011.3  1011.2         
06:54 21.05 СЗ  7
{13} 
16 км    ясно  +18.9  +6.7  45  +19  +19    1012.0  1011.8         
07:54 21.05 СЗ  7
{10} 
16 км    ясно  +17.8  +6.7  48  +17  +17    1012.6  1012.5         
08:54 21.05 СЗ  16 км    5/2 1500 м
[верхняя] 
+16.1  +6.1  51  +15  +15    1013.2  1012.9         
09:54 21.05 СЗ  16 км    5/2 1500 м
[верхняя] 
+16.7  +5.6  48  +16  +16    1013.8  1013.5         
10:54 21.05 СЗ  6
{10} 
16 км    8/8 1380 м  +16.1  +5.6  50  +15  +15    1014.7  1014.5  +16.1  +21.1     
11:54 21.05 С  7
{10} 
16 км    8/5 1350 м
[верхняя] 
+17.2  +5.6  46  +16  +16    1015.3  1015.2         
12:54 21.05 СЗ  16 км    8/5 1350 м
[верхняя] 
+17.8  +5.0  43  +17  +17    1015.5  1015.2         
13:54 21.05 С  16 км    8/2 1500 м
[верхняя] 
+17.8  +3.3  38  +17  +17    1016.2  1015.9         
14:54 21.05 С  8
{11} 
16 км    8/0 7500 м
[верхняя] 
+17.8  +2.8  37  +17  +18    1016.1  1015.9         
15:54 21.05 СЗ  10
{13} 
16 км    8/0 7500 м
[верхняя] 
+19.4  +3.3  34  +19  +19    1015.7  1015.6         
16:54 21.05 СЗ  7
{10} 
16 км    8/0 7500 м
[верхняя] 
+20.0  +3.3  33  +20  +23    1015.7  1015.6  +16.1  +20.0     
17:54 21.05 СЗ  7
{10} 
16 км    5/0 7500 м
[верхняя] 
+20.6  +3.3  32  +21  +23  комфорт  1015.4  1015.2         
18:54 21.05 С  7
{11} 
16 км    5/0 7500 м
[верхняя] 
+21.7  +3.9  31  +22  +24  комфорт  1015.4  1015.2         
19:54 21.05 СЗ  7
{9} 
16 км    5/0 7500 м
[верхняя] 
+22.2  +3.3  29  +22  +24  комфорт  1015.5  1015.2         
20:54 21.05 З  16 км    8/0 4500 м
[средняя верхняя] 
+21.7  +3.9  31  +22  +24  комфорт  1015.8  1015.6         
21:54 21.05 З  16 км    8/0 4500 м
[средняя верхняя] 
+22.2  +4.4  31  +22  +23  комфорт  1015.9  1015.6         
22:54 21.05 СЗ  16 км    8/0 7500 м
[верхняя] 
+21.7  +4.4  32  +22  +22  комфорт  1016.5  1016.2  +19.4  +22.2     
23:54 21.05 С  4
{10} 
16 км    8/0 7500 м
[верхняя] 
+20.0  +2.2  31  +20  +20    1017.4  1017.3         
00:54 22.05 С  16 км    8/0 7500 м
[верхняя] 
+18.9  +2.2  33  +19  +19    1018.8  1018.6         
01:54 22.05 С  16 км    5/0 8400 м
[верхняя] 
+17.8  +0.6  31  +17  +17    1019.8  1019.6         
02:54 22.05 С  16 км    5/0 8400 м
[верхняя] 
+16.7  +2.2  38  +16  +16    1020.3  1020.0         
03:54 22.05 С  16 км    2/0 8400 м
[верхняя] 
+16.1  +2.2  39  +15  +15    1020.9  1020.6         
04:54 22.05 С  16 км    2/0 8400 м
[верхняя] 
+15.0  +2.8  44  +14  +14    1021.2  1021.0  +15.0  +21.7     
05:54 22.05 С  16 км    5/0 8400 м
[верхняя] 
+13.3  +3.3  51  +12  +12    1021.6  1021.3         
06:54 22.05 СЗ  16 км    2/0 8400 м
[верхняя] 
+13.9  +3.3  49  +13  +13    1022.3  1022.0         
07:54 22.05 СЗ  16 км    ясно  +12.8  +3.3  52  +12  +12    1022.3  1022.0         
08:54 22.05 С  16 км    5/0 5400 м
[средняя верхняя] 
+12.8  +3.3  52  +13  +13    1022.8  1022.7         
09:54 22.05 нст  16 км    2/0 5400 м
[средняя верхняя] 
+13.9  +3.3  49  +14  +14    1023.6  1023.3         
10:54 22.05 С  16 км    2/0 8400 м
[верхняя] 
+16.1  +3.9  44  +16  +17    1024.2  1024.0  +12.2  +16.1     
11:54 22.05 нст  16 км    5/0 8400 м
[верхняя] 
+18.3  +3.9  38  +19  +23    1024.9  1024.7         
12:54 22.05 нст  16 км    5/0 8400 м
[верхняя] 
+20.0  +2.2  31  +21  +27  комфорт  1025.2  1025.0         
13:54 22.05   16 км    5/0 8400 м
[верхняя] 
+20.6  +2.2  30  +21  +35  комфорт  1024.9  1024.7         
14:54 22.05 ЮВ  16 км    8/0 7800 м
[верхняя] 
+21.1  +2.8  30  +21  +31  комфорт  1024.5  1024.4         
15:54 22.05 Ю  16 км    5/0 7200 м
[верхняя] 
+21.7  +3.9  31  +22  +36  комфорт  1024.3  1024.0         
16:54 22.05 Ю  16 км    5/0 6900 м
[верхняя] 
+22.2  +2.8  28  +22  +34  комфорт  1024.2  1024.0  +16.1  +22.8     
17:54 22.05 ЮЗ  16 км    8/0 6600 м
[верхняя] 
+22.8  +1.7  25  +22  +31  комфорт  1023.8  1023.7         
18:54 22.05 З  16 км    8/0 6600 м
[верхняя] 
+23.9  +2.8  25  +23  +34  комфорт  1023.4  1023.0         
19:54 22.05 ЮЗ  16 км    8/0 6000 м
[средняя верхняя] 
+22.8  +2.8  27  +22  +27  комфорт  1023.5  1023.3         
20:54 22.05 ЮЗ  16 км    8/0 6000 м
[средняя верхняя] 
+23.3  +3.3  27  +23  +26  комфорт  1023.2  1023.0         
21:54 22.05 ЮЗ  16 км    8/0 6000 м
[средняя верхняя] 
+22.8  +5.0  31  +23  +24  комфорт  1023.0  1022.7         
22:54 22.05 ЮЗ  16 км    8/0 6000 м
[средняя верхняя] 
+21.7  +5.0  34  +22  +23  комфорт  1022.6  1022.3  +21.7  +23.9     
23:54 22.05 ЮЗ  16 км    8/0 7500 м
[верхняя] 
+20.6  +6.7  40  +21  +21  комфорт  1024.0  1023.7         
00:54 23.05 Ю  16 км    8/0 5400 м
[средняя верхняя] 
+18.9  +7.2  47  +19  +19    1024.2  1024.0         
01:54 23.05 ЮЗ  16 км    8/0 5400 м
[средняя верхняя] 
+18.9  +8.3  50  +19  +19    1024.4  1024.0         

 

Местоположение метеостанции Philadelphia International Airport: широта 39.8733 долгота -75.2268 высота над уровнем моря 2 м.

В архиве по умолчанию представлена погода в Филадельфии за последние 1-2 суток. Обновление информации о фактической погоде в базе происходит ежечасно! Архивные данные за месяц целиком и за предыдущие месяцы Вы можете получить, выбрав интересующий диапазон дат из раскрывающегося списка и нажав кнопку "Ввод!".

Внимание! Архив погоды МЕТАР в базе сайта в настоящее время начинается c 1 января 2011 г. Нет смысла пытаться выбрать более раннюю дату.

Внимание! Время в таблицах - всемирное. Для получения местного времени необходимо прибавить поправку, которая в Филадельфии равна -5 ч.

Ветер - указаны скорость ветра в м/с и направление, откуда дует ветер: С - северный, СВ - северо-восточный, В - восточный, ЮВ - юго-восточный, Ю - южный, ЮЗ - юго-западный, З - западный, СЗ - северо-западный.
Видимость - горизонтальная дальность видимости в метрах или километрах. При видимости от 1 до 10 км при отсутствии осадков обычно наблюдается дымка, при ухудшении видимости до 1 км и менее - туман. В сухую погоду видимость может ухудшаться дымом, пылью или мглою.
Атмосферные явления - указаны явления, наблюдавшиеся в указанный момент времени.
Облачность - указаны через наклонную черту верхняя и нижняя облачность в баллах и высота нижней границы облаков в метрах. Внимание: облачность, как и прочие метеорологические величины в США измеряются автоматическими метеостанциями. Указанные значения в баллах носят условный характер и показывают процент времени, в течение которого, в среднем, лазерный луч высотомера отражался от облаков обратно.
T - Температура воздуха - температура, измеренная на высоте 2 м над землей.
Td - Температура точки росы - температура, при понижении до которой содержащийся в воздухе водяной пар достигнет насыщения.
f - Относительная влажность воздуха - влажноcть воздуха, измеренная на высоте 2 м над землей.
Te - Эффективная температура - температура, которую ощущает одетый по сезону человек в тени. Характеристика душности погоды. При расчете учитывается влияние влажности воздуха и скорости ветра на теплоощущения человека.
Tes - Эффективная температура на солнце - температура, которую ощущает человек, с поправкой на солнечный нагрев. Характеристика знойности погоды. Зависит от высоты солнца над горизонтом, облачности и скорости ветра. Ночью, в пасмурную погоду, а также при ветре 12 м/с и более поправка равна нулю.
P - Атмосферное давление - приведенное к уровню моря атмосферное давление.
Po - Атмосферное давление - измеренное на уровне метеостанции атмосферное давление.
Tmin - Минимальная температура - минимум температуры воздуха на высоте 2 м над землей.
Tmax - Максимальная температура - максимум температуры воздуха на высоте 2 м над землей.
R - Количество осадков - Количество выпавших осадков за 3 или 6 часов, мм.
SD - Снежный покров - Высота снежного покрова, см.